{"data":{"norad_id":62457,"intl_designator":"2024-252D","name":"NUVIEW BRAVO","alt_names":[],"object_type":"PAYLOAD","status":"ACTIVE","operator":null,"country":"UK","launch_date":"2024-12-29","launch_site_code":"AFETR","launch_vehicle":null,"mission":null,"orbit_class":"UNKNOWN","rcs_meters":null,"size_class":null,"mass_kg":null,"dimensions":null,"purposes":["comms"],"wikipedia_slug":null,"has_3d_model":false,"image_url":null,"decayed_at":null,"tle_current":{"epoch":"2026-05-25T03:02:38.776416Z","epoch_age_seconds":54335,"freshness":"FRESH","line1":"1 62457U 24252D   26145.12683769 -.00000217  00000+0  00000+0 0  9998","line2":"2 62457   0.0682 139.3485 0001776 327.3177  98.6021  1.00271725  3561","mean_motion":1.00271725,"eccentricity":0.0001776,"inclination_deg":0.0682,"raan_deg":139.3485,"arg_perigee_deg":327.3177,"mean_anomaly_deg":98.6021,"bstar":0,"rev_number":356,"period_min":1436.0977633525,"perigee_km":35779.123321994,"apogee_km":35794.100240761,"semimajor_km":42164.748781377,"source":"CELESTRAK","updated_at":"2026-05-25T13:38:14.150034Z"}}}